Location: Unspecified
(52.0907°N, 0.0000°E)
Time: 12:20:44
(UTC+00:00)

Jawsat - Visible Passes

Search period start: 04 April 2026 00:00
Search period end: 14 April 2026 00:00
Orbit: 719 x 765 km, 100.2° (Epoch: 28 March)

Date Brightness Start Highest point End Pass type
(mag) Time Alt. Az. Time Alt. Az. Time Alt. Az.
4 Apr 10.1 03:59:09 10° NE 04:01:54 15° E 04:04:40 10° SE visible
6 Apr 10.0 04:10:06 10° NE 04:13:24 18° E 04:16:42 10° SE visible
8 Apr 9.9 04:21:09 10° NE 04:24:54 21° E 04:28:37 10° SE visible
10 Apr 9.6 04:32:18 10° NE 04:36:21 25° E 04:40:25 10° SSE visible
11 Apr 10.4 03:50:57 10° ENE 03:52:18 11° E 03:53:39 10° ESE visible
13 Apr 10.2 04:01:23 10° ENE 04:03:48 13° E 04:06:13 10° ESE visible
